241P/LINEAR (2021)

Japanese version
Home page
Updated on October 9, 2020

---------------------------------------------------------------------

* Profile

* Orbital Elements

Epoch 2021 Aug. 14.0 TT = JDT 2459440.5
T 2021 July 25.79818 TT                                 Rudenko
q   1.9174637            (2000.0)            P               Q
n   0.09043424     Peri.  111.42631     +0.49511173     -0.81785206
a   4.9156482      Node   305.48307     +0.60207351     +0.56629118
e   0.6099266      Incl.   21.10654     +0.62639593     +0.10213865
P  10.9
From 387 observations 1999 Oct. 30-2020 Sept. 12, mean residual 0".8.

* Magnitudes Graph

        m1 = 11.5 + 5 log d + 15.0 log r(t - 60)

---------------------------------------------------------------------

The orbital elements are published on M.P.E.C. 2020-S188.
The magnitudes graphs are made with Comet for Windows.

---------------------------------------------------------------------

Copyright(C) Seiichi Yoshida (comet@aerith.net). All rights reserved.